CAPE
0 0 0 0 0 0 0 0 0 0 0 0 0 0 0 0 0 0 0 0 0 0 0 0 0 0 0 0 0 0 0 0 0 0 0 0 0 0 0 0 0 0 0 0 0
0 0 0 0 0 0 0 0 0 0 0 0 0 0 0 0 0 0 0 0 0 0 0 0 0 0 0 0 0 0 0 0 0 0 0 0 0 0 0 0 0 0 0 0 0
0 0 0 0 0 0 0 0 0 0 0 0 0 0 0 0 0 0 0 0 0 0 0 0 0 0 0 0 0 0 0 0 0 0 0 0 0 0 0 0 0 0 0 0 0
0 0 0 0 0 0 0 0 0 0 0 0 0 0 0 0 0 0 0 0 0 0 0 0 0 0 0 0 0 0 0 0 0 0 0 0 0 0 0 0 0 0 0 0 0
0 0 0 0 0 0 0 0 0 0 0 0 0 0 0 0 0 0 0 0 0 0 0 0 0 0 0 0 0 0 0 0 0 0 0 0 0 0 0 0 0 0 0 0 0
0 0 0 0 0 0 0 0 0 0 0 0 0 0 0 0 0 0 0 0 0 0 0 0 0 0 0 0 0 0 0 0 0 0 0 0 0 0 0 0 0 0 0 0 0
0 0 0 0 0 0 0 0 0 0 0 0 0 0 0 0 0 0 0 0 0 0 0 0 0 0 0 0 0 0 0 0 0 0 0 0 0 0 0 0 0 0 0 0 0
0 0 0 0 0 0 0 0 0 0 0 0 0 0 0 0 0 0 0 0 0 0 0 0 0 0 0 0 0 0 0 0 0 0 0 0 0 0 0 0 0 0 0 0 0
0 0 0 0 0 0 0 0 0 0 0 0 0 0 0 0 0 0 0 0 0 0 0 0 0 0 0 0 0 0 0 0 0 0 0 0 0 0 0 0 0 0 0 0 0
0 0 0 0 0 0 0 0 0 0 0 0 0 0 0 0 0 0 0 0 0 0 0 0 0 0 0 0 0 0 0 0 0 0 0 0 0 0 0 0 0 0 0 0 0
0 0 0 0 0 0 0 0 0 0 0 0 0 0 0 0 0 0 0 0 0 0 0 0 0 0 0 0 0 0 0 0 0 0 0 0 0 0 0 0 0 0 0 0 0
0 0 0 0 0 0 0 0 0 0 0 0 0 0 0 0 0 0 0 0 0 0 0 0 0 0 0 0 0 0 0 0 0 0 0 0 0 0 0 0 0 0 0 0 0
0 0 0 0 0 0 0 0 0 0 0 0 0 0 0 0 0 0 0 0 0 0 0 0 0 0 0 0 0 0 0 0 0 0 0 0 0 0 0 0 0 0 0 0 0
0 0 0 0 0 0 0 0 0 0 0 0 0 0 0 0 0 0 0 0 0 0 0 0 0 0 0 0 0 0 0 0 0 0 0 0 0 0 0 0 0 0 0 0 0
0 0 0 0 0 0 0 0 0 0 0 0 0 0 0 0 0 0 0 0 0 0 0 0 0 0 0 0 0 0 0 0 0 0 0 0 0 0 0 0 0 0 0 0 0
0 0 0 0 0 0 0 0 0 0 0 0 0 0 0 0 0 0 0 0 0 0 0 0 0 0 0 0 0 0 0 0 0 0 0 0 0 0 0 0 0 0 0 0 0
0 0 0 0 0 0 0 0 0 0 0 0 0 0 0 0 0 0 0 0 0 0 0 0 0 0 0 0 0 0 0 0 0 0 0 0 0 0 0 0 0 0 0 0 0
0 0 0 0 0 0 0 0 0 0 0 0 0 0 0 0 0 0 0 0 0 0 0 0 0 0 0 0 0 0 0 0 0 0 0 0 0 0 0 0 0 0 0 0 0
0 0 0 0 0 0 0 0 0 0 0 0 0 0 0 0 0 0 0 0 0 0 0 0 0 0 0 0 0 0 0 0 0 0 0 0 0 0 0 0 0 0 0 0 0
0 0 0 0 0 0 0 0 0 0 0 0 0 0 0 0 0 0 0 0 0 0 0 0 0 0 0 0 0 0 0 0 0 0 0 0 0 0 0 0 0 0 0 0 0
0 0 0 0 0 0 0 0 0 0 0 0 0 0 0 0 0 0 0 0 0 0 0 0 0 0 0 0 0 0 0 0 0 0 0 0 0 0 0 0 0 0 0 0 0
0 0 0 0 0 0 0 0 0 0 0 0 0 0 0 0 0 0 0 0 0 0 0 0 0 0 0 0 0 0 0 0 0 0 0 0 0 0 0 0 0 0 0 0 0
0 0 0 0 0 0 0 0 0 0 0 0 0 0 0 0 0 0 0 0 0 0 0 0 0 0 0 0 0 0 0 0 0 0 0 0 0 0 0 0 0 0 0 0 0
0 0 0 0 0 0 0 0 0 0 0 0 0 0 0 0 0 0 0 0 0 0 0 0 0 0 0 0 0 0 0 0 0 0 0 0 0 0 0 0 0 0 0 0 0
0 0 0 0 0 0 0 0 0 0 0 0 0 0 0 0 0 0 0 0 0 0 0 0 0 0 0 0 0 0 0 0 0 0 0 0 0 0 0 0 0 0 0 0 0
0 0 0 0 0 0 0 0 0 0 0 0 0 0 0 0 0 0 0 0 0 0 0 0 0 0 0 0 0 0 0 0 0 0 0 0 0 0 0 0 0 0 0 0 0
1 0 0 0 0 0 0 0 0 0 0 0 0 0 0 0 0 0 0 0 0 0 0 0 0 0 0 0 0 0 0 0 0 0 0 0 0 0 0 0 0 0 0 0 0
CIN
0 0 0 0 0 0 0 0 0 0 0 0 0 0 0 0 0 0 0 0 0 0 0 0 0 0 0 0 0 0 0 0 0 0 0 0 0 0 0 0 0 0 0 0 0
0 0 0 0 0 0 0 0 0 0 0 0 0 0 0 0 0 0 0 0 0 0 0 0 0 0 0 0 0 0 0 0 0 0 0 0 0 0 0 0 0 0 0 0 0
0 0 0 0 0 0 0 0 0 0 0 0 0 0 0 0 0 0 0 0 0 0 0 0 0 0 0 0 0 0 0 0 0 0 0 0 0 0 0 0 0 0 0 0 0
0 0 0 0 0 0 0 0 0 0 0 0 0 0 0 0 0 0 0 0 0 0 0 0 0 0 0 0 0 0 0 0 0 0 0 0 0 0 0 0 0 0 0 0 0
0 0 0 0 0 0 0 0 0 0 0 0 0 0 0 0 0 0 0 0 0 0 0 0 0 0 0 0 0 0 0 0 0 0 0 0 0 0 0 0 0 0 0 0 0
0 0 0 0 0 0 0 0 0 0 0 0 0 0 0 0 0 0 0 0 0 0 0 0 0 0 0 0 0 0 0 0 0 0 0 0 0 0 0 0 0 0 0 0 0
0 0 0 0 0 0 0 0 0 0 0 0 0 0 0 0 0 0 0 0 0 0 0 0 0 0 0 0 0 0 0 0 0 0 0 0 0 0 0 0 0 0 0 0 0
0 0 0 0 0 0 0 0 0 0 0 0 0 0 0 0 0 0 0 0 0 0 0 0 0 0 0 0 0 0 0 0 0 0 0 0 0 0 0 0 0 0 0 0 0
0 0 0 0 0 0 0 0 0 0 0 0 0 0 0 0 0 0 0 0 0 0 0 0 0 0 0 0 0 0 0 0 0 0 0 0 0 0 0 0 0 0 0 0 0
0 0 0 0 0 0 0 0 0 0 0 0 0 0 0 0 0 0 0 0 0 0 0 0 0 0 0 0 0 0 0 0 0 0 0 0 0 0 0 0 0 0 0 0 0
0 0 0 0 0 0 0 0 0 0 0 0 0 0 0 0 0 0 0 0 0 0 0 0 0 0 0 0 0 0 0 0 0 0 0 0 0 0 0 0 0 0 0 0 0
0 0 0 0 0 0 0 0 0 0 0 0 0 0 0 0 0 0 0 0 0 0 0 0 0 0 0 0 0 0 0 0 0 0 0 0 0 0 0 0 0 0 0 0 0
0 0 0 0 0 0 0 0 0 0 0 0 0 0 0 0 0 0 0 0 0 0 0 0 0 0 0 0 0 0 0 0 0 0 0 0 0 0 0 0 0 0 0 0 0
0 0 0 0 0 0 0 0 0 0 0 0 0 0 0 0 0 0 0 0 0 0 0 0 0 0 0 0 0 0 0 0 0 0 0 0 0 0 0 0 0 0 0 0 0
0 0 0 0 0 0 0 0 0 0 0 0 0 0 0 0 0 0 0 0 0 0 0 0 0 0 0 0 0 0 0 0 0 0 0 0 0 0 0 0 0 0 0 0 0
0 0 0 0 0 0 0 0 0 0 0 0 0 0 0 0 0 0 0 0 0 0 0 0 0 0 0 0 0 0 0 0 0 0 0 0 0 0 0 0 0 0 0 0 0
0 0 0 0 0 0 0 0 0 0 0 0 0 0 0 0 0 0 0 0 0 0 0 0 0 0 0 0 0 0 0 0 0 0 0 0 0 0 0 0 0 0 0 0 0
0 0 0 0 0 0 0 0 0 0 0 0 0 0 0 0 0 0 0 0 0 0 0 0 0 0 0 0 0 0 0 0 0 0 0 0 0 0 0 0 0 0 0 0 0
0 0 0 0 0 0 0 0 0 0 0 0 0 0 0 0 0 0 0 0 0 0 0 0 0 0 0 0 0 0 0 0 0 0 0 0 0 0 0 0 0 0 0 0 0
0 0 0 0 0 0 0 0 0 0 0 0 0 0 0 0 0 0 0 0 0 0 0 0 0 0 0 0 0 0 0 0 0 0 0 0 0 0 0 0 0 0 0 0 0
0 0 0 0 0 0 0 0 0 0 0 0 0 0 0 0 0 0 0 0 0 0 0 0 0 0 0 0 0 0 0 0 0 0 0 0 0 0 0 0 0 0 0 0 0
0 0 0 0 0 0 0 0 0 0 0 0 0 0 0 0 0 0 0 0 0 0 0 0 0 0 0 0 0 0 0 0 0 0 0 0 0 0 0 0 0 0 0 0 0
0 0 0 0 0 0 0 0 0 0 0 0 0 0 0 0 0 0 0 0 0 0 0 0 0 0 0 0 0 0 0 0 0 0 0 0 0 0 0 0 0 0 0 0 0
0 0 0 0 0 0 0 0 0 0 0 0 0 0 0 0 0 0 0 0 0 0 0 0 0 0 0 0 0 0 0 0 0 0 0 0 0 0 0 0 0 0 0 0 0
0 0 0 0 0 0 0 0 0 0 0 0 0 0 0 0 0 0 0 0 0 0 0 0 0 0 0 0 0 0 0 0 0 0 0 0 0 0 0 0 0 0 0 0 0
0 0 0 0 0 0 0 0 0 0 0 0 0 0 0 0 0 0 0 0 0 0 0 0 0 0 0 0 0 0 0 0 0 0 0 0 0 0 0 0 0 0 0 0 0
0 0 0 0 0 0 0 0 0 0 0 0 0 0 0 0 0 0 0 0 0 0 0 0 0 0 0 0 0 0 0 0 0 0 0 0 0 0 0 0 0 0 0 0 0
Wind_Speed
20 21 21 22 21 17 17 18 18 17 18 18 16 14 10 7 18 25 23 20 18 18 14 10 16 14 13 13 14 12 15 16 18 18 19 26 27 26 27 25 28 28 30 35 39
17 18 17 19 17 17 13 14 13 13 15 16 15 14 15 12 17 26 21 20 17 16 16 17 17 16 14 13 14 14 14 16 18 20 22 26 26 27 25 27 27 33 36 39 40
16 16 16 16 16 16 15 15 14 15 15 16 16 14 14 15 17 22 24 19 16 14 16 14 15 16 16 15 16 15 15 14 19 21 22 24 24 24 26 27 29 33 34 35 35
17 16 17 17 17 18 17 16 15 16 17 17 16 12 11 13 15 17 21 20 18 18 17 17 16 16 16 15 15 14 17 18 18 20 20 23 22 23 24 26 29 29 30 32 35
17 17 17 17 18 19 17 16 16 17 17 16 15 14 13 15 15 18 19 20 20 21 18 17 17 16 15 15 17 16 16 18 19 21 19 23 23 22 23 26 27 28 29 32 34
16 16 17 17 17 18 17 17 17 18 16 16 16 15 15 16 16 20 19 21 22 22 21 19 17 17 16 16 16 16 17 18 20 23 21 23 20 22 21 26 27 28 28 31 32
15 16 16 17 17 18 18 19 19 19 18 19 17 16 17 15 19 22 22 21 22 22 21 19 19 15 15 16 16 16 17 17 19 23 21 26 20 17 22 25 28 29 27 29 29
18 19 19 19 20 20 20 20 20 21 20 20 20 17 16 18 19 23 23 20 21 21 19 19 17 18 16 14 14 15 18 19 18 23 22 25 23 18 21 25 29 30 29 28 28
21 21 22 23 23 23 22 22 21 22 21 21 19 17 17 18 21 24 23 22 21 20 19 18 17 17 15 14 15 18 18 21 22 21 23 24 22 17 25 24 27 27 29 29 29
24 24 24 25 25 26 25 23 22 22 21 17 18 17 19 21 23 25 24 23 20 22 18 18 16 16 19 16 15 17 19 21 23 23 26 26 20 16 17 19 22 25 28 30 31
25 25 26 26 26 27 24 21 22 19 22 19 21 19 20 23 18 25 24 23 19 19 18 19 17 17 18 19 17 17 19 21 23 25 30 25 27 23 17 16 18 24 28 30 31
25 26 27 27 26 27 22 19 19 19 21 20 19 18 19 21 21 26 25 18 20 19 19 17 16 16 16 18 20 18 20 24 25 25 32 27 26 18 13 15 17 23 27 29 31
26 26 27 28 22 21 19 19 19 20 22 22 20 20 20 21 19 24 23 19 19 20 21 17 15 15 17 18 23 20 19 26 27 35 25 28 28 25 20 13 17 21 24 26 31
26 27 28 27 19 19 19 20 20 21 23 23 20 19 18 18 18 20 21 19 19 19 19 18 16 17 18 19 22 23 23 30 32 32 30 28 33 28 22 19 21 21 23 28 30
25 26 26 23 20 19 20 20 20 19 26 19 18 17 18 16 18 20 20 19 19 19 19 18 17 18 20 20 21 20 30 30 29 29 32 24 30 29 22 26 24 21 25 25 29
24 26 25 20 19 18 19 20 19 21 22 18 18 18 16 17 18 19 19 19 18 19 20 18 18 18 19 20 19 25 27 24 25 25 29 25 30 31 28 27 24 23 22 26 30
23 24 22 21 18 21 20 18 22 20 18 18 17 17 18 20 20 21 21 21 21 23 22 20 19 17 18 21 19 27 26 29 28 28 29 23 33 26 25 25 23 25 23 27 31
22 22 20 19 21 21 18 18 20 19 18 17 17 18 19 20 21 22 20 21 19 20 21 21 22 17 18 21 22 25 24 26 30 30 32 25 24 28 21 23 22 19 22 28 33
22 20 20 21 21 20 17 18 20 17 16 15 17 21 21 19 19 20 19 19 18 16 20 22 20 17 20 20 20 22 23 21 26 25 30 23 23 29 23 22 24 22 25 35 34
23 24 21 21 20 18 17 19 18 16 15 16 19 18 20 19 20 20 19 17 18 17 18 20 24 20 19 17 20 20 20 24 23 29 30 28 30 25 23 25 25 28 31 33 33
22 26 22 20 19 18 22 20 19 17 17 17 19 21 20 21 20 20 20 19 17 16 17 18 22 22 20 17 19 20 21 19 20 21 26 33 29 20 24 26 29 29 29 31 36
22 31 21 18 22 21 24 22 23 20 17 18 20 20 20 19 21 21 22 20 14 14 19 17 20 25 22 19 20 20 19 15 22 24 21 27 27 19 23 25 29 31 28 34 33
29 29 21 20 29 28 26 25 24 22 21 19 19 18 20 20 23 20 21 20 15 16 18 14 21 27 26 22 20 18 17 16 20 22 23 25 26 23 22 28 30 32 35 33 31
28 35 30 27 28 31 29 31 28 23 25 22 22 20 21 22 21 23 23 22 17 18 18 16 23 25 27 26 23 23 22 16 17 25 26 20 26 23 23 32 33 39 32 29 29
31 39 33 36 36 32 30 31 30 28 25 23 26 24 22 24 24 25 23 24 22 20 20 21 29 27 26 26 26 27 25 20 19 19 25 24 25 25 27 30 33 32 27 29 31
36 35 33 39 35 32 33 36 32 27 24 27 29 23 22 26 26 28 23 24 26 20 21 22 31 30 34 29 28 28 23 22 22 22 23 24 26 25 22 23 28 29 30 30 31
33 32 36 38 37 38 42 38 35 29 31 30 28 27 28 29 24 25 26 25 23 22 21 24 26 30 37 30 35 32 24 17 16 17 16 18 19 20 22 25 30 32 30 27 29
Wind_Direction
4 4 6 6 3 354 352 357 353 340 339 331 317 301 228 280 359 15 2 324 299 293 271 169 54 64 67 9 5 12 343 340 341 342 341 341 339 342 340 338 334 341 339 332 327
346 353 346 356 348 349 328 332 321 316 315 319 309 271 249 263 354 9 333 318 306 300 328 5 32 48 16 13 3 356 347 345 355 351 341 341 345 346 351 347 343 331 327 331 332
337 336 334 330 332 325 317 314 313 318 319 319 319 315 263 269 359 343 326 317 307 298 346 340 341 26 18 8 353 354 358 15 353 352 353 351 353 0 355 353 354 346 347 351 351
331 327 326 323 319 318 312 310 303 310 309 312 310 303 307 274 341 303 317 318 316 330 357 23 20 9 11 13 4 18 6 6 10 8 11 3 11 7 8 3 0 5 4 2 358
328 322 320 316 312 310 298 292 290 299 299 298 306 284 259 347 338 299 311 325 335 354 349 360 7 12 13 18 10 19 29 25 23 15 21 4 12 18 17 14 12 10 8 4 1
312 309 310 306 301 296 286 280 278 294 293 294 301 285 279 349 279 308 312 332 346 357 358 3 18 26 19 9 12 30 31 28 24 12 20 3 15 13 18 12 12 12 12 9 8
296 299 293 296 291 290 286 280 275 288 289 298 302 321 350 324 329 322 319 337 343 350 5 359 354 24 36 28 33 34 15 25 20 10 13 360 2 12 13 11 7 5 10 9 10
302 301 298 296 291 293 285 284 282 289 292 298 305 340 329 6 355 332 329 345 338 353 12 7 29 28 20 44 28 14 10 5 10 2 8 0 359 11 7 5 3 3 3 5 6
306 303 305 300 297 296 294 284 287 297 299 308 335 337 322 354 335 325 337 331 321 345 0 7 16 17 18 6 -0 360 353 350 352 1 358 359 352 3 359 0 0 4 3 2 2
313 310 309 303 303 305 300 300 302 315 319 349 349 333 337 321 330 327 334 332 341 324 351 350 3 359 348 350 344 346 347 344 342 348 343 341 339 340 354 356 360 1 360 359 358
312 314 310 309 311 312 321 326 321 327 342 335 325 329 333 327 352 336 335 328 350 351 344 349 352 348 346 350 351 349 344 340 339 339 337 343 338 339 347 353 356 358 357 357 356
311 311 311 310 316 325 339 337 337 334 324 336 338 340 340 334 329 329 329 346 346 343 340 344 344 349 348 347 344 343 336 335 334 341 334 337 336 335 335 344 352 354 353 353 354
310 312 310 310 327 342 351 344 341 336 320 322 330 326 330 331 334 328 338 343 344 342 341 342 346 350 343 340 337 337 333 333 330 326 333 334 336 348 355 354 352 351 351 354 353
309 312 313 308 335 338 339 337 337 338 316 315 324 329 335 335 331 340 342 343 340 340 342 343 348 343 339 335 336 330 331 325 325 326 327 338 328 339 346 347 344 348 353 353 354
307 310 314 328 326 331 333 337 338 336 310 325 327 335 334 340 335 333 343 340 339 339 338 336 341 339 333 335 337 331 325 323 326 324 324 331 330 336 345 339 342 349 352 356 356
313 311 306 332 341 341 341 339 336 323 312 324 325 325 328 333 336 335 338 344 342 339 340 342 344 341 339 339 340 335 333 331 328 328 324 329 330 331 337 340 349 352 357 355 352
320 321 329 327 334 328 336 341 322 313 328 321 322 323 321 319 327 328 328 329 330 329 330 335 340 345 344 341 346 340 339 332 329 329 327 334 328 329 343 345 350 350 354 352 350
324 327 332 332 326 324 331 330 315 321 317 327 325 321 315 319 319 322 325 323 329 327 326 329 331 343 348 346 340 342 345 336 329 329 329 333 332 340 351 349 351 354 355 354 352
323 324 323 323 324 322 326 314 316 318 322 321 322 314 313 318 320 324 324 323 329 330 324 328 331 344 343 344 345 342 340 345 333 334 330 335 337 337 343 350 356 358 358 352 351
315 314 314 318 320 320 314 308 313 321 323 319 313 316 312 316 317 320 322 326 325 325 327 326 322 335 341 344 344 342 348 337 338 333 331 332 333 335 344 347 353 351 349 351 353
309 305 311 312 308 308 299 305 309 308 309 309 307 307 308 311 313 315 317 321 322 325 327 328 323 329 336 335 335 337 336 338 338 336 331 331 336 346 345 347 348 349 348 351 351
301 292 307 307 297 299 295 300 305 305 305 303 306 304 303 308 309 309 310 312 323 324 318 324 325 320 326 334 334 333 333 334 330 331 328 330 327 343 344 348 347 347 349 348 351
286 288 302 295 286 286 292 293 294 295 297 300 299 301 303 303 307 306 310 316 314 312 318 325 318 319 323 331 334 330 327 324 327 329 318 324 329 350 348 343 343 344 346 347 348
280 281 282 281 283 283 285 287 285 289 291 292 296 300 300 298 297 306 306 311 311 308 316 317 310 309 310 319 328 322 322 315 313 318 316 294 301 312 318 330 337 340 345 347 350
272 274 274 277 275 273 279 282 282 284 285 286 289 286 291 295 297 296 298 303 305 304 306 308 303 308 307 309 311 309 308 303 288 283 303 299 310 293 325 329 334 339 346 348 350
264 269 275 276 276 269 269 274 273 280 280 283 280 285 282 287 291 297 297 298 298 297 298 303 303 310 308 310 309 306 301 293 278 281 276 276 284 279 301 320 334 340 347 348 351
265 271 273 269 272 268 267 268 269 272 276 277 277 281 279 285 292 298 300 299 297 295 290 297 300 307 305 314 312 307 306 290 298 301 279 294 286 318 322 332 339 340 345 347 352